Location: Mentone
(34.5413°N, 85.5351°W)
Time: 00:41:47
(UTC-06:00)

Vanguard 2 Rocket - Visible Passes

Search period start: 19 January 2017 00:00
Search period end: 29 January 2017 00:00
Orbit: 553 x 3329 km, 32.9° (Epoch: 18 January)

Date Brightness Start Highest point End Pass type
(mag) Time Alt. Az. Time Alt. Az. Time Alt. Az.
19 Jan 10.1 01:40:05 28° ESE 01:40:05 28° ESE 01:47:05 10° ESE visible
19 Jan 9.4 03:45:55 43° SW 03:46:53 43° SSW 04:04:14 10° SE visible
19 Jan 10.4 05:53:55 10° WSW 06:03:39 18° SW 06:14:45 10° S visible
20 Jan 10.8 00:44:16 11° ESE 00:44:16 11° ESE 00:44:45 10° ESE visible
20 Jan 9.5 02:50:07 43° SSE 02:50:07 43° SSE 03:02:57 10° SE visible
20 Jan 10.0 04:55:57 19° WSW 05:02:31 24° SW 05:16:24 10° S visible
20 Jan 8.6 19:02:31 10° S 19:02:35 10° S 19:02:35 10° S visible
21 Jan 10.1 01:54:19 27° SE 01:54:19 27° SE 02:01:11 10° SE visible
21 Jan 9.7 04:00:09 31° SW 04:01:29 31° SSW 04:16:39 10° SSE visible
22 Jan 10.7 00:58:31 12° ESE 00:58:31 12° ESE 00:59:11 10° ESE visible
22 Jan 9.7 03:04:22 34° S 03:04:22 34° S 03:16:00 10° SSE visible
22 Jan 10.3 05:10:12 11° WSW 05:17:09 15° SW 05:25:55 10° S visible
22 Jan 8.2 19:15:40 10° SSW 19:16:54 17° S 19:16:54 17° S visible
23 Jan 10.1 02:08:34 24° SSE 02:08:34 24° SSE 02:14:47 10° SE visible
23 Jan 10.0 04:14:25 20° SW 04:16:11 21° SSW 04:27:50 10° S visible
23 Jan 8.0 18:18:20 10° S 18:20:15 13° SSE 18:21:07 12° SE visible
24 Jan 10.7 01:12:46 11° SE 01:12:46 11° SE 01:13:15 10° SE visible
24 Jan 10.0 03:18:37 25° S 03:18:37 25° S 03:28:10 10° SSE visible
24 Jan 8.1 19:29:44 10° SW 19:31:09 20° SW 19:31:09 20° SW visible
25 Jan 10.3 02:22:49 20° SSE 02:22:49 20° SSE 02:27:42 10° SSE visible
25 Jan 10.3 04:28:39 11° SW 04:31:02 12° SW 04:35:47 10° SSW visible
25 Jan 7.3 18:31:29 10° SSW 18:34:42 24° SSE 18:35:22 23° SE visible
26 Jan 10.3 03:32:51 16° SSW 03:32:51 16° SSW 03:38:46 10° S visible
26 Jan 8.0 17:33:35 10° S 17:35:52 14° SSE 17:38:05 10° ESE visible
26 Jan 8.3 19:44:14 10° WSW 19:45:23 19° WSW 19:45:23 19° WSW visible
27 Jan 10.4 02:37:00 14° S 02:37:00 14° S 02:39:33 10° SSE visible
27 Jan 6.6 18:45:35 10° SW 18:49:16 39° SSE 18:49:33 38° SSE visible
28 Jan 7.3 17:46:54 10° SW 17:50:27 26° SSE 17:53:43 10° E visible
28 Jan 8.8 19:58:55 10° WSW 19:59:34 15° WSW 19:59:34 15° WSW visible
